TimeCST,TemperatureF,Dew PointF,Humidity,Sea Level PressureIn,VisibilityMPH,Wind Direction,Wind SpeedMPH,Gust SpeedMPH,PrecipitationIn,Events,Conditions,WindDirDegrees,DateUTC
12:24 AM,53.6,44.6,72,30.03,10.0,Variable,3.5,-,N/A,,Overcast,0,2013-03-05 06:24:00
12:56 AM,54.0,44.1,69,30.03,10.0,Variable,3.5,-,N/A,,Overcast,0,2013-03-05 06:56:00
1:56 AM,55.0,46.0,72,30.03,10.0,SE,4.6,-,N/A,,Overcast,130,2013-03-05 07:56:00
2:42 AM,53.6,44.6,72,30.03,10.0,SE,5.8,-,N/A,,Overcast,130,2013-03-05 08:42:00
2:56 AM,53.1,45.0,74,30.02,10.0,SE,6.9,-,N/A,,Mostly Cloudy,140,2013-03-05 08:56:00
3:56 AM,53.1,45.0,74,30.03,10.0,SE,3.5,-,N/A,,Mostly Cloudy,130,2013-03-05 09:56:00
4:04 AM,53.6,44.6,72,30.03,10.0,SE,4.6,-,N/A,,Mostly Cloudy,140,2013-03-05 10:04:00
4:26 AM,53.6,44.6,72,30.03,10.0,SSE,3.5,-,N/A,,Mostly Cloudy,150,2013-03-05 10:26:00
4:56 AM,53.1,46.0,77,30.02,10.0,SSE,4.6,-,N/A,,Mostly Cloudy,150,2013-03-05 10:56:00
5:56 AM,53.1,46.0,77,30.04,10.0,Calm,Calm,-,N/A,,Scattered Clouds,0,2013-03-05 11:56:00
6:56 AM,54.0,48.0,80,30.04,10.0,Calm,Calm,-,N/A,,Mostly Cloudy,0,2013-03-05 12:56:00
7:56 AM,57.0,50.0,77,30.02,9.0,Variable,4.6,-,N/A,,Clear,0,2013-03-05 13:56:00
8:56 AM,61.0,52.0,72,30.06,10.0,South,3.5,-,N/A,,Mostly Cloudy,190,2013-03-05 14:56:00
9:56 AM,66.0,54.0,65,30.04,10.0,WSW,5.8,-,N/A,,Mostly Cloudy,250,2013-03-05 15:56:00
10:56 AM,71.1,55.9,59,30.01,10.0,West,10.4,21.9,N/A,,Overcast,260,2013-03-05 16:56:00
11:56 AM,75.0,53.1,46,29.95,10.0,West,16.1,26.5,N/A,,Mostly Cloudy,270,2013-03-05 17:56:00
12:56 PM,75.9,52.0,43,29.92,10.0,West,11.5,31.1,N/A,,Overcast,270,2013-03-05 18:56:00
1:56 PM,75.0,52.0,44,29.91,10.0,West,12.7,24.2,N/A,,Overcast,270,2013-03-05 19:56:00
2:56 PM,75.9,54.0,46,29.87,10.0,West,15.0,28.8,N/A,,Mostly Cloudy,260,2013-03-05 20:56:00
3:56 PM,75.0,55.0,50,29.86,10.0,West,15.0,27.6,N/A,,Scattered Clouds,260,2013-03-05 21:56:00
4:56 PM,66.9,57.9,73,29.92,10.0,NNW,16.1,23.0,0.01,,Overcast,330,2013-03-05 22:56:00
5:56 PM,63.0,52.0,67,29.96,10.0,NNW,16.1,-,N/A,,Partly Cloudy,340,2013-03-05 23:56:00
6:56 PM,60.1,48.9,67,29.99,10.0,North,17.3,24.2,N/A,,Partly Cloudy,350,2013-03-06 00:56:00
7:56 PM,54.0,41.0,62,30.05,10.0,North,25.3,35.7,N/A,,Clear,360,2013-03-06 01:56:00
8:56 PM,50.0,37.0,61,30.09,10.0,North,12.7,23.0,N/A,,Clear,360,2013-03-06 02:56:00
9:56 PM,48.0,36.0,63,30.10,10.0,North,6.9,-,N/A,,Clear,350,2013-03-06 03:56:00
10:56 PM,46.0,36.0,68,30.10,10.0,NW,4.6,-,N/A,,Clear,320,2013-03-06 04:56:00
11:56 PM,45.0,36.0,71,30.09,10.0,WNW,3.5,-,N/A,,Clear,300,2013-03-06 05:56:00